Location: *
(42.3442°N, 9.2072°E)
Time: 19:32:44
(UTC+00:00)

HJ-1C - Pass Details

Date: 09 April 2020
Orbit: 431 x 447 km, 97.2° (Epoch: 03 June)

Event Time Altitude Azimuth Distance (km) Brightness Sun altitude
Rises 18:19:24 0° 162° (SSE) 2,426 6.8 -4.6°
Reaches altitude 10° 18:21:25 10° 160° (SSE) 1,563 5.8 -5.0°
Maximum altitude 18:24:44 71° 77° (ENE) 478 3.4 -5.5°
Drops below altitude 10° 18:28:08 10° 353° (N) 1,584 6.5 -6.1°
Sets 18:30:10 0° 351° (N) 2,462 7.5 -6.5°
